Overview Statistics Trail Chart Weather Telemetry Raw packets
 

This is the latest recevied weather packets stored in our database for station/object KD8DNS. If no packets are shown the sender has not sent any weather packets the latest 10 day(s).

<< 78 79 80 81 82 83 84 >>
Time Temp. Humidity Pressure Rain* Wind** Luminosity Snow
1788106023 30.56° C 67% 1023.6 hPa 0 mm - 601 W/m² -
1788105718 30° C 66% 1024 hPa 0 mm - 612 W/m² -
1788105414 30.56° C 66% 1023.7 hPa 0 mm - 595 W/m² -
1788105109 30.56° C 68% 1024 hPa 0 mm - 625 W/m² -
1788104805 30° C 67% 1024 hPa 0 mm - 601 W/m² -
1788104500 30° C 68% 1023.8 hPa 0 mm - 590 W/m² -
1788104197 30° C 67% 1023.9 hPa 0 mm - 626 W/m² -
1788103897 30° C 67% 1023.8 hPa 0 mm - 611 W/m² -
1788103595 29.44° C 68% 1023.9 hPa 0 mm - 588 W/m² -
1788103295 28.89° C 71% 1023.6 hPa 0 mm - 596 W/m² -
1788103000 28.89° C 70% 1023.6 hPa 0 mm - 568 W/m² -
1788102690 28.89° C 71% 1023.7 hPa 0 mm - 476 W/m² -
1788102385 28.89° C 70% 1023.5 hPa 0 mm - 439 W/m² -
1788102080 27.78° C 72% 1023.5 hPa 0 mm - 435 W/m² -
1788101779 27.78° C 72% 1023.2 hPa 0 mm - 483 W/m² -
1788101474 27.78° C 72% 1023.2 hPa 0 mm - 448 W/m² -
1788101170 27.22° C 75% 1023.4 hPa 0 mm - 439 W/m² -
1788100865 27.22° C 73% 1023.1 hPa 0 mm - 468 W/m² -
1788100561 27.78° C 73% 1023.2 hPa 0 mm - 468 W/m² -
1788100259 27.78° C 72% 1023.2 hPa 0 mm - 397 W/m² -
1788099955 27.78° C 73% 1023 hPa 0 mm - 380 W/m² -
1788099649 27.22° C 75% 1023.2 hPa 0 mm - 366 W/m² -
1788099344 26.67° C 74% 1023.1 hPa 0 mm - 337 W/m² -
1788099039 26.67° C 74% 1023 hPa 0 mm - 312 W/m² -
1788098734 26.67° C 75% 1023 hPa 0 mm - 331 W/m² -

* Rain latest hour (hover to see other rain measurements)
** Current wind speed in m/s (hover to see current wind gust speed)